パンスターズ彗星

258P/PanSTARRS (2002)

English version
Home page
Updated on June 9, 2012

---------------------------------------------------------------------

・ プロフィール

・ 軌道要素

Epoch 2002 Jan. 6.0 TT = JDT 2452280.5
T 2002 Jan.  9.16632 TT                                 MPC
q   3.4574134            (2000.0)            P               Q
n   0.10746337     Peri.   25.87041     -0.88239258     -0.46088741
a   4.3815633      Node   126.36021     +0.40870585     -0.85050489
e   0.2109178      Incl.    6.75259     +0.23311556     -0.25342499
P   9.17
From 35 observations 2002 Mar. 11-2012 May 21, mean residual 0".46.

・ 光度変化

        m1 = 12.5 + 5 logΔ + 10.0 log r

---------------------------------------------------------------------

軌道要素はM.P.E.C. 2012-K56に掲載されたものです。
光度グラフはComet for Windowsで作成したものです。

---------------------------------------------------------------------

Copyright(C) Seiichi Yoshida (comet@aerith.net). All rights reserved.